Theta_e
293 293 293 294 296 296 297 298 296 291 294 298 302 308 307 304 303 305 304 301 301 304 306 309 309 309 310 311 312 313 313 310 310 309 307 307 306 306
290 290 290 292 293 294 295 295 295 293 290 296 298 302 305 301 301 301 302 296 298 300 302 306 307 307 307 309 310 311 312 309 309 308 306 306 305 305
288 288 288 289 289 290 292 292 292 293 289 293 296 298 299 300 301 301 298 298 299 296 299 302 305 304 304 306 307 309 310 309 308 307 305 304 303 303
286 286 286 287 288 289 288 288 289 290 289 286 291 292 294 296 295 297 297 294 295 295 297 299 302 303 302 303 304 305 306 305 305 305 304 303 302 302
285 285 285 285 284 285 285 285 285 286 286 285 285 288 289 290 291 292 292 292 292 292 294 297 298 301 301 301 302 302 302 301 303 302 301 301 301 301
285 284 284 284 283 284 284 284 284 282 283 283 283 284 286 288 289 286 286 289 288 291 290 291 294 297 300 299 300 299 299 300 301 299 299 298 299 299
283 283 283 283 283 283 283 282 283 282 282 282 282 283 283 284 284 286 286 287 289 290 289 288 288 292 296 297 296 296 298 298 299 298 297 296 296 297
280 281 282 282 282 282 282 283 283 281 280 280 281 280 281 283 285 284 284 284 284 291 286 286 289 289 292 294 296 296 297 297 298 297 295 295 295 295
279 280 280 280 281 280 281 282 282 282 283 281 279 280 280 282 283 282 283 284 283 288 287 284 288 286 290 290 295 296 296 295 296 295 294 293 293 292
279 279 279 278 279 279 279 279 280 280 280 281 281 281 282 283 283 283 283 284 286 286 288 282 287 285 288 288 292 294 294 294 295 294 292 291 291 290
278 278 277 277 278 279 277 277 277 278 281 281 282 284 286 286 286 284 281 281 281 283 288 284 285 285 285 285 286 293 293 293 293 292 291 290 289 288
276 276 277 277 278 278 276 275 274 275 276 277 278 280 282 283 285 284 283 280 281 280 286 280 283 282 277 279 283 286 288 291 290 290 290 289 288 283
275 275 276 277 277 277 277 274 274 275 275 274 276 278 280 282 283 285 285 283 281 282 287 282 282 279 277 274 278 283 285 286 285 287 288 288 287 282
274 274 275 276 275 275 274 274 275 274 272 272 273 274 276 278 280 281 281 280 281 281 286 283 280 278 274 272 274 276 283 285 284 283 283 286 286 283
274 274 274 273 273 271 272 272 271 270 269 269 270 273 276 278 278 276 278 276 275 274 278 282 281 278 277 275 274 274 278 276 283 281 281 281 279 278
273 272 271 270 270 270 268 269 268 268 268 268 269 272 275 276 275 275 273 274 272 272 272 276 277 277 274 275 275 273 275 272 277 280 279 278 276 276
270 268 266 266 265 265 265 265 266 267 266 267 267 270 272 273 273 273 272 272 270 269 268 270 272 273 273 273 273 273 272 271 274 275 273 272 273 273
267 264 264 263 263 263 263 263 264 264 265 265 267 270 271 271 271 271 271 270 269 268 267 268 269 269 270 270 273 272 269 269 270 272 271 268 266 269
263 262 262 262 262 262 262 262 262 263 264 265 266 269 270 270 270 269 269 269 268 267 266 267 268 269 266 263 268 273 268 268 268 268 270 269 266 266
262 261 261 262 262 262 262 261 262 262 263 263 264 267 268 269 269 268 268 267 267 266 265 267 268 269 268 264 264 267 271 268 268 266 264 267 268 271
261 261 261 261 261 262 262 261 261 261 261 262 263 264 266 267 268 268 268 266 266 266 264 265 265 267 267 267 263 264 267 271 269 265 264 264 263 264
261 260 261 261 261 261 261 261 261 260 260 261 262 263 264 266 267 267 267 266 265 265 263 264 265 266 266 266 262 261 263 266 269 270 269 265 262 260
260 260 260 261 261 261 261 261 260 260 260 260 261 261 262 264 266 267 267 266 265 263 263 262 263 264 263 263 261 261 261 263 264 262 264 270 269 269
Wind_Speed
9 10 8 8 8 8 9 9 10 13 18 9 11 7 7 6 9 11 13 18 23 26 25 25 26 25 25 26 26 26 26 28 27 27 25 25 23 24
8 12 11 8 9 8 8 9 9 10 15 11 12 14 12 7 10 13 15 14 20 23 27 26 27 27 27 27 28 28 28 29 30 28 27 26 25 24
13 14 15 15 10 10 9 9 10 10 13 22 14 14 17 17 13 12 12 14 13 22 28 30 31 30 29 28 29 30 29 29 29 30 29 28 26 25
13 13 13 11 13 12 10 13 12 12 12 23 16 15 17 18 17 15 13 10 12 18 25 31 32 31 29 29 30 31 30 30 29 29 29 29 28 27
12 12 13 13 13 11 12 11 11 10 10 13 18 14 16 14 16 14 13 13 12 19 26 28 31 30 30 29 30 31 29 30 31 30 28 27 28 28
12 12 13 13 15 15 13 14 11 13 11 12 15 17 16 15 16 12 14 11 12 12 17 20 22 31 31 31 30 29 28 29 30 31 29 27 26 27
12 12 12 13 16 19 13 14 15 12 12 13 15 16 15 14 15 12 16 14 15 12 12 11 12 15 17 29 26 29 27 29 30 33 31 29 26 25
13 14 15 15 19 25 25 26 23 18 18 15 16 18 22 17 15 15 15 15 18 9 10 15 12 14 14 15 29 32 30 30 25 30 30 29 27 26
16 15 15 12 18 18 23 28 25 27 27 22 23 21 24 19 20 22 19 18 18 14 13 15 11 14 13 13 28 32 32 33 29 33 32 29 26 25
17 18 18 19 18 21 23 23 21 20 21 17 21 23 22 22 20 20 23 22 18 17 15 15 10 14 12 11 24 31 32 32 30 33 33 34 29 27
16 18 19 19 25 34 24 25 26 22 23 33 36 38 37 37 33 19 18 18 18 16 14 14 13 11 10 9 10 28 31 34 30 31 33 34 31 28
16 17 20 22 33 35 25 22 23 23 24 25 24 26 29 25 31 22 17 18 16 18 11 10 12 7 3 3 7 10 14 28 30 30 31 32 33 13
13 13 13 30 35 36 35 19 21 28 27 21 19 17 16 17 13 15 17 15 16 17 11 12 8 6 4 3 5 7 13 12 13 20 33 33 33 21
14 13 16 35 35 34 27 32 34 29 15 16 16 17 17 15 14 14 19 14 13 13 12 15 5 9 8 5 5 4 8 11 14 15 14 25 32 31
13 22 32 32 31 22 28 32 25 14 14 16 16 16 16 16 16 14 13 12 6 8 9 13 8 10 7 7 5 6 6 3 9 14 14 15 13 15
18 13 19 22 23 22 16 16 13 13 15 15 16 16 16 13 13 10 10 8 6 4 10 8 4 7 5 3 7 7 4 6 5 10 14 11 12 11
17 10 10 11 12 12 13 14 14 14 15 14 16 16 15 13 12 9 8 7 5 4 4 6 10 9 6 3 5 7 5 4 6 10 15 13 9 10
10 10 11 11 12 12 13 14 13 16 15 16 16 15 15 13 12 9 8 6 5 2 1 1 4 6 3 6 10 6 6 7 6 10 12 15 9 6
9 10 10 11 11 12 12 13 15 14 17 14 16 16 14 13 13 9 8 6 3 2 1 1 1 2 4 3 3 6 8 9 8 9 9 9 10 8
9 10 10 10 11 12 12 13 14 14 14 15 15 15 14 13 11 9 8 7 3 1 1 1 1 2 3 4 4 3 11 8 10 9 9 10 11 16
10 10 9 10 10 11 11 12 14 13 15 14 14 14 14 13 11 9 8 6 3 2 1 2 4 6 7 6 6 6 6 10 8 10 10 10 8 6
10 10 10 10 10 11 11 11 12 13 13 13 13 13 14 13 11 10 7 6 4 2 4 3 2 3 3 3 8 8 6 6 13 18 12 7 6 8
11 11 11 11 10 10 11 11 12 12 12 12 12 13 14 14 11 9 7 5 2 2 2 3 4 5 5 7 9 7 10 11 10 9 8 15 14 11
Wind_Direction
343 343 333 324 321 314 313 307 297 304 300 304 295 278 254 262 256 262 253 251 236 237 230 228 223 223 222 223 219 219 210 205 212 200 200 203 195 195
355 347 342 336 327 324 315 304 293 290 288 303 301 308 305 274 274 265 267 258 252 235 232 231 229 223 222 224 221 215 217 204 211 201 200 202 202 199
351 348 338 339 335 323 322 316 309 300 287 293 301 310 308 303 287 273 273 265 260 241 237 232 228 224 220 222 221 220 211 203 210 201 202 200 201 201
345 340 338 335 326 328 329 320 309 306 296 294 307 307 304 307 304 294 287 267 263 255 244 238 236 227 224 221 217 218 211 200 209 198 202 202 198 199
337 336 331 329 331 321 323 318 313 307 304 297 299 300 297 298 295 284 277 270 263 265 259 250 240 235 223 225 224 214 211 201 202 193 200 200 198 197
335 331 327 321 319 320 320 315 313 309 298 293 293 295 295 298 291 292 280 268 265 261 254 251 249 242 229 219 221 222 211 205 200 188 192 193 198 196
331 325 318 317 311 326 316 322 318 313 305 299 292 291 291 292 287 290 284 280 266 256 253 244 241 242 233 222 220 214 216 208 208 188 185 184 193 194
328 327 327 329 332 324 325 321 316 313 304 297 290 288 291 291 288 285 284 286 284 236 238 250 234 239 230 222 215 212 208 204 217 193 179 179 186 185
332 333 331 331 329 322 320 316 310 301 298 295 290 285 287 289 293 289 281 276 272 282 248 250 226 233 227 233 227 214 205 201 207 189 177 175 184 181
334 333 329 328 322 326 320 313 312 305 298 292 286 285 282 286 279 280 283 280 275 267 251 255 230 236 221 219 221 217 204 197 207 183 173 172 179 180
329 328 326 321 327 324 319 317 311 307 303 302 297 293 290 288 280 276 271 275 272 271 253 230 234 232 221 214 209 216 204 193 196 182 169 170 168 175
325 323 324 326 323 325 321 315 312 313 312 309 303 296 290 281 279 269 270 269 270 272 248 222 231 191 201 244 204 205 199 189 179 176 169 168 162 156
322 324 325 323 326 324 322 320 312 317 314 307 299 299 297 289 288 280 268 261 271 262 254 204 205 188 180 154 200 216 188 186 172 172 170 166 162 153
324 321 320 326 325 324 324 321 320 322 307 307 304 304 304 306 304 313 305 292 292 302 271 203 198 184 175 165 181 187 204 180 171 168 165 169 162 159
321 323 323 322 323 322 321 323 326 316 313 311 305 301 308 306 306 300 293 286 295 346 319 213 198 183 178 185 179 174 176 149 164 159 159 163 152 154
330 321 317 320 319 320 321 325 320 317 315 310 306 308 306 309 308 304 297 306 306 335 3 16 79 157 149 167 174 156 193 157 155 152 150 142 139 146
331 319 322 325 325 326 324 323 321 319 319 318 311 309 313 312 310 310 301 305 304 333 5 18 52 67 79 98 150 161 146 131 148 137 132 128 131 140
330 325 322 321 319 321 320 319 320 318 320 319 311 316 317 318 315 313 305 307 313 347 48 31 104 96 86 41 19 144 120 133 131 145 135 125 115 109
323 317 315 316 316 317 316 316 316 319 317 319 315 319 322 320 321 317 317 314 327 30 55 350 219 160 156 99 22 78 129 135 131 127 130 133 131 140
313 314 312 313 314 314 315 314 314 317 319 320 321 322 325 324 323 324 322 320 323 12 75 51 298 253 161 139 116 78 129 138 148 125 106 93 103 130
311 307 307 305 307 310 310 310 312 314 317 319 321 324 326 327 324 325 321 327 323 336 153 86 32 88 104 96 100 104 102 127 130 130 126 109 117 127
303 304 306 304 307 308 308 311 311 315 318 320 321 323 324 325 324 325 324 318 326 2 71 93 89 58 44 106 122 114 105 110 109 123 106 96 155 152
302 304 304 304 305 308 308 309 310 310 313 315 316 321 321 322 324 323 323 321 329 78 121 105 59 47 63 107 116 114 114 114 120 95 77 84 95 122